Stuttgart, AR

11:50 AM CDT on March 30, 2017 (GMT -0500)
Stuttgart Municipal

Weather History for KSGT - November, 2013

Change the Weather History Date:

Tuesday, November 12, 2013

  Actual Average Record
Temperature  
Mean Temperature 42 °F -  
Max Temperature 57 °F 59 °F 78 °F (2003)
Min Temperature 28 °F 44 °F 28 °F (2013)
Degree Days  
Heating Degree Days 22    
Moisture  
Dew Point 28 °F    
Average Humidity 59    
Maximum Humidity 88    
Minimum Humidity 34    
Precipitation  
Precipitation 0.00 in - - ()
Sea Level Pressure  
Sea Level Pressure 30.56 in    
Wind  
Wind Speed 16 mph (NNE)    
Max Wind Speed 29 mph    
Max Gust Speed 38 mph    
Visibility 10 miles    
Events      
Averages and records for this station are not official NWS values.
T = Trace of Precipitation, MM = Missing Value Source: NWS Daily Summary

Daily Weather History Graph

Daily Weather History Graph

Search for Another Location

Airport or City:

Trip Planner

Search our weather history database for the weather conditions in past years. The results will help you decide how hot, cold, wet, or windy it might be!

Date:

Astronomy

Nov. 12, 2013 Rise Set
Actual Time 6:37 AM CST 5:03 PM CST
Civil Twilight 6:10 AM CST 5:29 PM CST
Nautical Twilight 5:40 AM CST 6:00 PM CST
Astronomical Twilight 5:10 AM CST 6:29 PM CST
Moon 2:07 PM CST (11/12) 1:39 AM CST (11/12)
Length of Visible Light 11h 19m
Length of Day
10h 25m
Waxing Gibbous, 76% of the Moon is Illuminated
Nov 12
Waxing Gibbous
Nov 17
Full
Nov 25
Last Quarter
Dec 2
New
Dec 9
First Quarter

Hourly Weather History & Observations

Time (CST) Temp. Windchill Dew Point Humidity Pressure Visibility Wind Dir Wind Speed Gust Speed Precip Events Conditions
12:15 AM 48.2 °F - 44.6 °F 87% 30.25 in 10.0 mi WNW 3.5 mph - N/A   Clear
12:35 AM 50.0 °F - 44.6 °F 82% 30.26 in 10.0 mi WNW 4.6 mph - N/A   Clear
12:55 AM 48.2 °F - 44.6 °F 87% 30.26 in 10.0 mi NW 5.8 mph - N/A   Mostly Cloudy
1:15 AM 51.8 °F - 48.2 °F 88% 30.27 in 10.0 mi NNW 6.9 mph - N/A   Overcast
1:35 AM 53.6 °F - 48.2 °F 82% 30.27 in 10.0 mi NNW 10.4 mph - N/A   Overcast
1:55 AM 53.6 °F - 48.2 °F 82% 30.27 in 10.0 mi NNW 9.2 mph - N/A   Overcast
2:15 AM 55.4 °F - 48.2 °F 77% 30.28 in 10.0 mi NNW 9.2 mph - N/A   Overcast
2:35 AM 55.4 °F - 48.2 °F 77% 30.29 in 10.0 mi North 12.7 mph - N/A   Overcast
2:55 AM 57.2 °F - 48.2 °F 72% 30.30 in 10.0 mi North 19.6 mph 24.2 mph N/A   Overcast
3:15 AM 55.4 °F - 48.2 °F 77% 30.31 in 10.0 mi NNE 28.8 mph 38.0 mph N/A   Overcast
3:35 AM 53.6 °F - 44.6 °F 72% 30.34 in 10.0 mi NNE 25.3 mph 34.5 mph N/A   Overcast
3:55 AM 51.8 °F - 42.8 °F 71% 30.36 in 10.0 mi NNE 28.8 mph 34.5 mph N/A   Overcast
4:15 AM 50.0 °F - 42.8 °F 76% 30.38 in 10.0 mi NNE 26.5 mph 34.5 mph N/A   Overcast
4:35 AM 48.2 °F - 41.0 °F 76% 30.40 in 10.0 mi NNE 27.6 mph 33.4 mph N/A   Overcast
4:55 AM 48.2 °F - 39.2 °F 71% 30.41 in 10.0 mi NNE 20.7 mph 32.2 mph N/A   Overcast
5:15 AM 48.2 °F - 37.4 °F 66% 30.43 in 10.0 mi NNE 19.6 mph 27.6 mph N/A   Overcast
5:35 AM 46.4 °F 38.1 °F 37.4 °F 71% 30.44 in 10.0 mi North 24.2 mph 34.5 mph N/A   Overcast
5:55 AM 46.4 °F 37.7 °F 35.6 °F 66% 30.46 in 10.0 mi NNE 26.5 mph 36.8 mph N/A   Overcast
6:15 AM 44.6 °F - 35.6 °F 71% 30.48 in 10.0 mi North - - N/A   Overcast
6:35 AM 44.6 °F 35.9 °F 35.6 °F 71% 30.49 in 10.0 mi NNE 23.0 mph 29.9 mph N/A   Overcast
6:55 AM 44.6 °F 36.1 °F 33.8 °F 66% 30.51 in 10.0 mi NNE 21.9 mph 29.9 mph N/A   Overcast
7:15 AM 42.8 °F 33.8 °F 33.8 °F 70% 30.53 in 10.0 mi NNE 21.9 mph 31.1 mph N/A   Overcast
7:35 AM 42.8 °F 34.0 °F 33.8 °F 70% 30.55 in 10.0 mi NNE 20.7 mph 29.9 mph N/A   Overcast
7:55 AM 42.8 °F 33.3 °F 33.8 °F 70% 30.56 in 10.0 mi North 24.2 mph 28.8 mph N/A   Overcast
8:15 AM 42.8 °F 33.8 °F 33.8 °F 70% 30.58 in 10.0 mi NNE 21.9 mph 31.1 mph N/A   Overcast
8:35 AM 42.8 °F 33.8 °F 32.0 °F 66% 30.58 in 10.0 mi NNE 21.9 mph 27.6 mph N/A   Overcast
8:55 AM 42.8 °F 32.5 °F 30.2 °F 61% 30.59 in 10.0 mi NNE 28.8 mph 34.5 mph N/A   Overcast
9:15 AM 42.8 °F 33.5 °F 30.2 °F 61% 30.61 in 10.0 mi North 23.0 mph 32.2 mph N/A   Overcast
9:35 AM 42.8 °F 33.5 °F 28.4 °F 57% 30.62 in 10.0 mi NNE 23.0 mph 29.9 mph N/A   Overcast
9:55 AM 42.8 °F 33.5 °F 30.2 °F 61% 30.63 in 10.0 mi NNE 23.0 mph 29.9 mph N/A   Overcast
10:15 AM 42.8 °F 33.1 °F 28.4 °F 57% 30.63 in 10.0 mi NNE 25.3 mph 33.4 mph N/A   Overcast
10:35 AM 41.0 °F 30.5 °F 26.6 °F 57% 30.64 in 10.0 mi North 26.5 mph - N/A   Overcast
10:55 AM 42.8 °F 33.5 °F 26.6 °F 53% 30.64 in 10.0 mi North 23.0 mph 29.9 mph N/A   Overcast
11:15 AM 42.8 °F 33.3 °F 26.6 °F 53% 30.64 in 10.0 mi North 24.2 mph 28.8 mph N/A   Mostly Cloudy
11:35 AM 44.6 °F 35.9 °F 26.6 °F 49% 30.63 in 10.0 mi North 23.0 mph 33.4 mph N/A   Mostly Cloudy
11:55 AM 44.6 °F 35.9 °F 23.0 °F 43% 30.63 in 10.0 mi NNE 23.0 mph 32.2 mph N/A   Partly Cloudy
12:15 PM 44.6 °F 36.1 °F 21.2 °F 39% 30.62 in 10.0 mi NNE 21.9 mph 31.1 mph N/A   Clear
12:35 PM 44.6 °F 36.6 °F 19.4 °F 37% 30.62 in 10.0 mi NNE 19.6 mph 28.8 mph N/A   Clear
12:55 PM 46.4 °F 38.5 °F 19.4 °F 34% 30.62 in 10.0 mi North 21.9 mph 27.6 mph N/A   Clear
1:15 PM 44.6 °F 36.6 °F 21.2 °F 39% 30.61 in 10.0 mi North 19.6 mph 26.5 mph N/A   Clear
1:35 PM 44.6 °F 36.1 °F 19.4 °F 37% 30.61 in 10.0 mi North 21.9 mph 26.5 mph N/A   Clear
1:55 PM 46.4 °F 38.5 °F 19.4 °F 34% 30.62 in 10.0 mi North 21.9 mph 26.5 mph N/A   Clear
2:15 PM 44.6 °F 36.1 °F 19.4 °F 37% 30.62 in 10.0 mi North 21.9 mph 26.5 mph N/A   Clear
2:35 PM 44.6 °F 36.6 °F 19.4 °F 37% 30.62 in 10.0 mi North 19.6 mph 27.6 mph N/A   Clear
2:55 PM 44.6 °F 36.1 °F 19.4 °F 37% 30.62 in 10.0 mi North 21.9 mph 27.6 mph N/A   Clear
3:15 PM 44.6 °F 35.9 °F 19.4 °F 37% 30.62 in 10.0 mi North 23.0 mph 26.5 mph N/A   Clear
3:35 PM 42.8 °F 34.3 °F 17.6 °F 36% 30.63 in 10.0 mi North 19.6 mph - N/A   Clear
3:55 PM 42.8 °F 34.0 °F 17.6 °F 36% 30.63 in 10.0 mi NNE 20.7 mph 27.6 mph N/A   Clear
4:15 PM 42.8 °F 33.8 °F 19.4 °F 39% 30.63 in 10.0 mi NNE 21.9 mph - N/A   Clear
4:35 PM 41.0 °F 32.8 °F 19.4 °F 42% 30.64 in 10.0 mi NNE 16.1 mph 20.7 mph N/A   Clear
4:55 PM 39.2 °F 31.2 °F 17.6 °F 42% 30.64 in 10.0 mi NNE 13.8 mph 21.9 mph N/A   Clear
5:15 PM 39.2 °F 30.8 °F 19.4 °F 45% 30.64 in 10.0 mi NE 15.0 mph - N/A   Clear
5:35 PM 37.4 °F 29.8 °F 19.4 °F 48% 30.65 in 10.0 mi NE 11.5 mph - N/A   Clear
5:55 PM 37.4 °F 29.8 °F 19.4 °F 48% 30.65 in 10.0 mi NE 11.5 mph - N/A   Clear
6:15 PM 37.4 °F 30.3 °F 19.4 °F 48% 30.66 in 10.0 mi NE 10.4 mph - N/A   Clear
6:35 PM 37.4 °F 30.3 °F 19.4 °F 48% 30.66 in 10.0 mi NE 10.4 mph - N/A   Clear
6:55 PM 35.6 °F - 19.4 °F 52% 30.67 in 10.0 mi North - - N/A   Clear
7:15 PM 35.6 °F - 19.4 °F 52% 30.67 in 10.0 mi North - - N/A   Clear
7:35 PM 35.6 °F - 19.4 °F 52% 30.68 in 10.0 mi North - - N/A   Clear
7:55 PM 35.6 °F - 19.4 °F 52% 30.68 in 10.0 mi North - - N/A   Clear
8:15 PM 35.6 °F - 19.4 °F 52% 30.68 in 10.0 mi North - - N/A   Clear
8:35 PM 33.8 °F - 19.4 °F 56% 30.69 in 10.0 mi North - - N/A   Clear
8:55 PM 33.8 °F - 19.4 °F 56% 30.69 in 10.0 mi North - - N/A   Clear
9:15 PM 33.8 °F - 19.4 °F 56% 30.70 in 10.0 mi North - - N/A   Clear
9:35 PM 33.8 °F - 19.4 °F 56% 30.70 in 10.0 mi North - - N/A   Clear
9:55 PM 33.8 °F - 19.4 °F 56% 30.70 in 10.0 mi North - - N/A   Clear
10:15 PM 32.0 °F - 19.4 °F 60% 30.70 in 10.0 mi North - - N/A   Clear
10:35 PM 30.2 °F - 21.2 °F 69% 30.70 in 10.0 mi North - - N/A   Clear
10:55 PM 30.2 °F - 21.2 °F 69% 30.70 in 10.0 mi North - - N/A   Clear
11:15 PM 28.4 °F - 21.2 °F 74% 30.69 in 10.0 mi North - - N/A   Clear
11:35 PM 28.4 °F - 21.2 °F 74% 30.69 in 10.0 mi North - - N/A   Clear
11:55 PM 28.4 °F - 21.2 °F 74% 30.69 in 10.0 mi North - - N/A   Clear